Location: Central Falls
(41.8900°N, 71.3929°W)
Time: 07:31:35
(UTC+00:00)

Altair - Pass Details

Date: 08 December 2023
Orbit: 1501 x 1682 km, 47.2° (Epoch: 29 February)

Event Time Altitude Azimuth Distance (km) Brightness Sun altitude
Rises 17:58:57 0° 296° (WNW) 4,722 10.0 22.7°
Reaches altitude 10° 18:02:04 10° 294° (WNW) 3,716 9.6 22.5°
Maximum altitude 18:11:17 68° 215° (SW) 1,611 8.5 21.8°
Drops below altitude 10° 18:20:19 10° 135° (SE) 3,644 9.8 21.1°
Sets 18:23:20 0° 132° (SE) 4,626 10.2 20.9°
